contact:dominique.lefevre@mio.osupytheas.fr, maurice.libes@osupytheas.fr, didier.mallarino@osupytheas.fr
Project:EMSO http://www.emso-fr.org/EMSO-France
Depth: 2436.0 m
Title:EMSO Ligure Ouest : Data MII capteur OXYGEN
DateTime,Latitude,Longitude,Optode-Type,Optode_Serial,Oxygen,Saturation_Oxygen,Temperature
DateTime,Latitude,Longitude,Optode-Type,Optode_Serial,µmol.l-1,%,degC
2017-10-03T00:02:06,42.805,6.029,4330,1995,199.648,61.052,13.286
2017-10-03T00:05:06,42.805,6.029,4330,1995,199.639,61.049,13.286
2017-10-03T00:08:06,42.805,6.029,4330,1995,199.680,61.062,13.286
2017-10-03T00:11:06,42.805,6.029,4330,1995,199.627,61.046,13.286
2017-10-03T00:14:06,42.805,6.029,4330,1995,199.668,61.058,13.286
2017-10-03T00:17:06,42.805,6.029,4330,1995,199.681,61.062,13.286
2017-10-03T00:20:06,42.805,6.029,4330,1995,199.653,61.054,13.286
2017-10-03T00:23:06,42.805,6.029,4330,1995,199.704,61.069,13.286
2017-10-03T00:26:06,42.805,6.029,4330,1995,199.707,61.070,13.286
2017-10-03T00:29:06,42.805,6.029,4330,1995,199.776,61.091,13.286
2017-10-03T00:32:06,42.805,6.029,4330,1995,199.731,61.077,13.285
2017-10-03T00:35:06,42.805,6.029,4330,1995,199.768,61.088,13.285
2017-10-03T00:38:06,42.805,6.029,4330,1995,199.777,61.091,13.286
2017-10-03T00:41:06,42.805,6.029,4330,1995,199.778,61.091,13.285
2017-10-03T00:44:06,42.805,6.029,4330,1995,199.739,61.080,13.286
2017-10-03T00:47:06,42.805,6.029,4330,1995,199.798,61.098,13.285
2017-10-03T00:50:06,42.805,6.029,4330,1995,199.766,61.088,13.285
2017-10-03T00:53:06,42.805,6.029,4330,1995,199.741,61.080,13.286
2017-10-03T00:56:06,42.805,6.029,4330,1995,199.710,61.071,13.286
2017-10-03T00:59:06,42.805,6.029,4330,1995,199.789,61.095,13.286
2017-10-03T01:02:06,42.805,6.029,4330,1995,199.734,61.078,13.286
2017-10-03T01:05:06,42.805,6.029,4330,1995,199.806,61.100,13.286
2017-10-03T01:08:06,42.805,6.029,4330,1995,199.794,61.096,13.286
2017-10-03T01:11:06,42.805,6.029,4330,1995,199.806,61.100,13.286
2017-10-03T01:14:06,42.805,6.029,4330,1995,199.829,61.107,13.286
2017-10-03T01:17:06,42.805,6.029,4330,1995,199.770,61.089,13.286
2017-10-03T01:20:06,42.805,6.029,4330,1995,199.686,61.064,13.286
2017-10-03T01:23:06,42.805,6.029,4330,1995,199.799,61.098,13.286
2017-10-03T01:26:06,42.805,6.029,4330,1995,199.771,61.089,13.285
2017-10-03T01:29:06,42.805,6.029,4330,1995,199.812,61.102,13.285
2017-10-03T01:32:06,42.805,6.029,4330,1995,199.741,61.080,13.285
2017-10-03T01:35:06,42.805,6.029,4330,1995,199.734,61.078,13.285
2017-10-03T01:38:06,42.805,6.029,4330,1995,199.686,61.063,13.285
2017-10-03T01:41:06,42.805,6.029,4330,1995,199.620,61.043,13.285
2017-10-03T01:44:06,42.805,6.029,4330,1995,199.741,61.080,13.286
2017-10-03T01:47:06,42.805,6.029,4330,1995,199.878,61.123,13.286
2017-10-03T01:50:06,42.805,6.029,4330,1995,200.001,61.160,13.286
2017-10-03T01:53:06,42.805,6.029,4330,1995,200.037,61.171,13.286
2017-10-03T01:56:06,42.805,6.029,4330,1995,200.021,61.166,13.286
2017-10-03T01:59:06,42.805,6.029,4330,1995,199.970,61.151,13.286
2017-10-03T02:02:06,42.805,6.029,4330,1995,199.956,61.147,13.286
2017-10-03T02:05:06,42.805,6.029,4330,1995,199.994,61.158,13.286
2017-10-03T02:08:06,42.805,6.029,4330,1995,199.966,61.150,13.286
2017-10-03T02:11:06,42.805,6.029,4330,1995,199.999,61.160,13.286
2017-10-03T02:14:06,42.805,6.029,4330,1995,199.982,61.155,13.286
2017-10-03T02:17:06,42.805,6.029,4330,1995,199.978,61.153,13.286
2017-10-03T02:20:06,42.805,6.029,4330,1995,199.911,61.133,13.286
2017-10-03T02:23:06,42.805,6.029,4330,1995,199.840,61.111,13.286
2017-10-03T02:26:06,42.805,6.029,4330,1995,199.799,61.098,13.286
2017-10-03T02:29:06,42.805,6.029,4330,1995,199.883,61.124,13.286
2017-10-03T02:32:06,42.805,6.029,4330,1995,199.936,61.141,13.286
2017-10-03T02:35:06,42.805,6.029,4330,1995,199.935,61.141,13.286
2017-10-03T02:38:06,42.805,6.029,4330,1995,199.908,61.133,13.286
2017-10-03T02:41:06,42.805,6.029,4330,1995,199.909,61.133,13.286
2017-10-03T02:44:06,42.805,6.029,4330,1995,199.896,61.128,13.286
2017-10-03T02:47:06,42.805,6.029,4330,1995,199.947,61.144,13.286
2017-10-03T02:50:06,42.805,6.029,4330,1995,200.100,61.191,13.286
2017-10-03T02:53:06,42.805,6.029,4330,1995,199.980,61.153,13.286
2017-10-03T02:56:06,42.805,6.029,4330,1995,200.019,61.166,13.286
2017-10-03T02:59:06,42.805,6.029,4330,1995,199.943,61.143,13.286
2017-10-03T03:02:06,42.805,6.029,4330,1995,199.936,61.140,13.286
2017-10-03T03:05:06,42.805,6.029,4330,1995,199.886,61.125,13.286
2017-10-03T03:08:06,42.805,6.029,4330,1995,199.941,61.141,13.286
2017-10-03T03:11:06,42.805,6.029,4330,1995,199.908,61.133,13.286
2017-10-03T03:14:06,42.805,6.029,4330,1995,199.991,61.157,13.286
2017-10-03T03:17:06,42.805,6.029,4330,1995,200.006,61.162,13.286
2017-10-03T03:20:06,42.805,6.029,4330,1995,200.050,61.176,13.286
2017-10-03T03:23:06,42.805,6.029,4330,1995,199.956,61.147,13.287
2017-10-03T03:26:06,42.805,6.029,4330,1995,199.958,61.148,13.287
2017-10-03T03:29:06,42.805,6.029,4330,1995,199.917,61.135,13.286
2017-10-03T03:32:06,42.805,6.029,4330,1995,199.817,61.105,13.286
2017-10-03T03:35:06,42.805,6.029,4330,1995,199.870,61.121,13.286
2017-10-03T03:38:06,42.805,6.029,4330,1995,199.942,61.142,13.286
2017-10-03T03:41:06,42.805,6.029,4330,1995,199.781,61.094,13.286
2017-10-03T03:44:06,42.805,6.029,4330,1995,199.813,61.103,13.286
2017-10-03T03:47:06,42.805,6.029,4330,1995,199.738,61.080,13.286
2017-10-03T03:50:06,42.805,6.029,4330,1995,199.769,61.090,13.286
2017-10-03T03:53:06,42.805,6.029,4330,1995,199.766,61.089,13.286
2017-10-03T03:56:06,42.805,6.029,4330,1995,199.665,61.058,13.287
2017-10-03T03:59:06,42.805,6.029,4330,1995,199.588,61.035,13.286
2017-10-03T04:02:06,42.805,6.029,4330,1995,199.642,61.051,13.286
2017-10-03T04:05:06,42.805,6.029,4330,1995,199.677,61.063,13.287
2017-10-03T04:08:06,42.805,6.029,4330,1995,199.657,61.056,13.287
2017-10-03T04:11:06,42.805,6.029,4330,1995,199.673,61.061,13.286
2017-10-03T04:14:06,42.805,6.029,4330,1995,199.628,61.046,13.286
2017-10-03T04:17:06,42.805,6.029,4330,1995,199.551,61.023,13.286
2017-10-03T04:20:06,42.805,6.029,4330,1995,199.458,60.995,13.287
2017-10-03T04:23:06,42.805,6.029,4330,1995,199.441,60.990,13.287
2017-10-03T04:26:06,42.805,6.029,4330,1995,199.419,60.984,13.287
2017-10-03T04:29:06,42.805,6.029,4330,1995,199.399,60.978,13.287
2017-10-03T04:32:06,42.805,6.029,4330,1995,199.265,60.936,13.286
2017-10-03T04:35:06,42.805,6.029,4330,1995,199.254,60.933,13.287
2017-10-03T04:38:06,42.805,6.029,4330,1995,199.419,60.983,13.287
2017-10-03T04:41:06,42.805,6.029,4330,1995,199.266,60.937,13.287
2017-10-03T04:44:06,42.805,6.029,4330,1995,199.190,60.916,13.289
2017-10-03T04:47:06,42.805,6.029,4330,1995,199.076,60.879,13.287
2017-10-03T04:50:06,42.805,6.029,4330,1995,199.064,60.876,13.287
2017-10-03T04:53:06,42.805,6.029,4330,1995,199.096,60.885,13.287
2017-10-03T04:56:06,42.805,6.029,4330,1995,198.898,60.824,13.287
2017-10-03T04:59:06,42.805,6.029,4330,1995,198.891,60.822,13.287
2017-10-03T05:02:06,42.805,6.029,4330,1995,198.963,60.844,13.287
2017-10-03T05:05:06,42.805,6.029,4330,1995,198.867,60.816,13.288
2017-10-03T05:08:06,42.805,6.029,4330,1995,198.790,60.792,13.287
2017-10-03T05:11:06,42.805,6.029,4330,1995,198.747,60.778,13.287
2017-10-03T05:14:06,42.805,6.029,4330,1995,198.722,60.771,13.287
2017-10-03T05:17:06,42.805,6.029,4330,1995,198.659,60.753,13.288
2017-10-03T05:20:06,42.805,6.029,4330,1995,198.582,60.728,13.287
2017-10-03T05:23:06,42.805,6.029,4330,1995,198.578,60.727,13.287
2017-10-03T05:26:06,42.805,6.029,4330,1995,198.630,60.743,13.288
2017-10-03T05:29:06,42.805,6.029,4330,1995,198.589,60.731,13.287
2017-10-03T05:32:06,42.805,6.029,4330,1995,198.768,60.785,13.287
2017-10-03T05:35:06,42.805,6.029,4330,1995,198.567,60.724,13.287
2017-10-03T05:38:06,42.805,6.029,4330,1995,198.637,60.745,13.287
2017-10-03T05:41:06,42.805,6.029,4330,1995,198.553,60.720,13.288
2017-10-03T05:44:06,42.805,6.029,4330,1995,198.550,60.718,13.287
2017-10-03T05:47:06,42.805,6.029,4330,1995,198.545,60.719,13.289
2017-10-03T05:50:06,42.805,6.029,4330,1995,198.583,60.728,13.287
2017-10-03T05:53:06,42.805,6.029,4330,1995,198.475,60.696,13.288
2017-10-03T05:56:06,42.805,6.029,4330,1995,198.467,60.694,13.288
2017-10-03T05:59:06,42.805,6.029,4330,1995,198.634,60.745,13.288
2017-10-03T06:02:06,42.805,6.029,4330,1995,198.591,60.730,13.287
2017-10-03T06:05:06,42.805,6.029,4330,1995,198.578,60.727,13.288
2017-10-03T06:08:06,42.805,6.029,4330,1995,198.597,60.733,13.288
2017-10-03T06:11:06,42.805,6.029,4330,1995,198.593,60.732,13.287
2017-10-03T06:14:06,42.805,6.029,4330,1995,198.593,60.733,13.288
2017-10-03T06:17:06,42.805,6.029,4330,1995,198.587,60.731,13.288
2017-10-03T06:20:06,42.805,6.029,4330,1995,198.481,60.697,13.287
2017-10-03T06:23:06,42.805,6.029,4330,1995,198.481,60.698,13.288
2017-10-03T06:26:06,42.805,6.029,4330,1995,198.472,60.694,13.287
2017-10-03T06:29:06,42.805,6.029,4330,1995,198.510,60.707,13.288
2017-10-03T06:32:06,42.805,6.029,4330,1995,198.510,60.706,13.287
2017-10-03T06:35:06,42.805,6.029,4330,1995,198.413,60.677,13.287
2017-10-03T06:38:06,42.805,6.029,4330,1995,198.205,60.613,13.288
2017-10-03T06:41:06,42.805,6.029,4330,1995,198.255,60.628,13.287
2017-10-03T06:44:06,42.805,6.029,4330,1995,198.402,60.675,13.288
2017-10-03T06:47:06,42.805,6.029,4330,1995,198.295,60.641,13.287
2017-10-03T06:50:06,42.805,6.029,4330,1995,198.111,60.590,13.292
2017-10-03T06:53:06,42.805,6.029,4330,1995,198.072,60.574,13.289
2017-10-03T06:56:06,42.805,6.029,4330,1995,197.670,60.450,13.288
2017-10-03T06:59:06,42.805,6.029,4330,1995,197.865,60.508,13.287
2017-10-03T07:02:06,42.805,6.029,4330,1995,198.353,60.657,13.286
2017-10-03T07:05:06,42.805,6.029,4330,1995,198.549,60.718,13.287
2017-10-03T07:08:06,42.805,6.029,4330,1995,198.476,60.696,13.287
2017-10-03T07:11:06,42.805,6.029,4330,1995,198.325,60.650,13.288
2017-10-03T07:14:06,42.805,6.029,4330,1995,198.084,60.577,13.288
2017-10-03T07:17:06,42.805,6.029,4330,1995,197.981,60.545,13.288
2017-10-03T07:20:06,42.805,6.029,4330,1995,198.093,60.580,13.288
2017-10-03T07:23:06,42.805,6.029,4330,1995,197.947,60.534,13.287
2017-10-03T07:26:06,42.805,6.029,4330,1995,198.064,60.573,13.290
2017-10-03T07:29:06,42.805,6.029,4330,1995,197.734,60.470,13.288
2017-10-03T07:32:06,42.805,6.029,4330,1995,197.526,60.406,13.288
2017-10-03T07:35:06,42.805,6.029,4330,1995,197.601,60.427,13.287
2017-10-03T07:38:06,42.805,6.029,4330,1995,197.812,60.492,13.287
2017-10-03T07:41:06,42.805,6.029,4330,1995,197.912,60.523,13.287
2017-10-03T07:44:06,42.805,6.029,4330,1995,197.830,60.498,13.287
2017-10-03T07:47:06,42.805,6.029,4330,1995,197.729,60.469,13.289
2017-10-03T07:50:06,42.805,6.029,4330,1995,197.520,60.406,13.289
2017-10-03T07:53:06,42.805,6.029,4330,1995,197.549,60.414,13.289
2017-10-03T07:56:06,42.805,6.029,4330,1995,197.523,60.407,13.289
2017-10-03T07:59:06,42.805,6.029,4330,1995,197.469,60.389,13.288
2017-10-03T08:02:06,42.805,6.029,4330,1995,197.324,60.351,13.292
2017-10-03T08:05:06,42.805,6.029,4330,1995,197.100,60.278,13.289
2017-10-03T08:08:06,42.805,6.029,4330,1995,197.222,60.318,13.291
2017-10-03T08:11:06,42.805,6.029,4330,1995,196.945,60.232,13.291
2017-10-03T08:14:06,42.805,6.029,4330,1995,196.795,60.186,13.290
2017-10-03T08:17:06,42.805,6.029,4330,1995,196.921,60.228,13.293
2017-10-03T08:20:06,42.805,6.029,4330,1995,196.541,60.109,13.291
2017-10-03T08:23:06,42.805,6.029,4330,1995,196.670,60.150,13.292
2017-10-03T08:26:06,42.805,6.029,4330,1995,196.546,60.109,13.290
2017-10-03T08:29:06,42.805,6.029,4330,1995,196.885,60.212,13.290
2017-10-03T08:32:06,42.805,6.029,4330,1995,196.659,60.143,13.289
2017-10-03T08:35:06,42.805,6.029,4330,1995,196.438,60.074,13.289
2017-10-03T08:38:06,42.805,6.029,4330,1995,196.466,60.083,13.289
2017-10-03T08:41:06,42.805,6.029,4330,1995,196.529,60.102,13.289
2017-10-03T08:44:06,42.805,6.029,4330,1995,196.460,60.082,13.290
2017-10-03T08:47:06,42.805,6.029,4330,1995,196.468,60.084,13.289
2017-10-03T08:50:06,42.805,6.029,4330,1995,196.424,60.071,13.289
2017-10-03T08:53:06,42.805,6.029,4330,1995,196.527,60.103,13.289
2017-10-03T08:56:06,42.805,6.029,4330,1995,196.645,60.139,13.289
2017-10-03T08:59:06,42.805,6.029,4330,1995,196.544,60.109,13.290
2017-10-03T09:02:06,42.805,6.029,4330,1995,196.615,60.130,13.290
2017-10-03T09:05:06,42.805,6.029,4330,1995,196.573,60.116,13.289
2017-10-03T09:08:06,42.805,6.029,4330,1995,196.784,60.181,13.289
2017-10-03T09:11:06,42.805,6.029,4330,1995,197.220,60.314,13.289
2017-10-03T09:14:06,42.805,6.029,4330,1995,197.208,60.311,13.289
2017-10-03T09:17:06,42.805,6.029,4330,1995,197.360,60.357,13.289
2017-10-03T09:20:06,42.805,6.029,4330,1995,197.218,60.314,13.289
2017-10-03T09:23:06,42.805,6.029,4330,1995,196.934,60.226,13.289
2017-10-03T09:26:06,42.805,6.029,4330,1995,196.907,60.219,13.290
2017-10-03T09:29:06,42.805,6.029,4330,1995,196.747,60.170,13.289
2017-10-03T09:32:06,42.805,6.029,4330,1995,196.950,60.231,13.289
2017-10-03T09:35:06,42.805,6.029,4330,1995,197.003,60.249,13.290
2017-10-03T09:38:06,42.805,6.029,4330,1995,197.045,60.260,13.289
2017-10-03T09:41:06,42.805,6.029,4330,1995,197.035,60.258,13.290
2017-10-03T09:44:06,42.805,6.029,4330,1995,196.793,60.185,13.290
2017-10-03T09:47:06,42.805,6.029,4330,1995,196.588,60.124,13.291
2017-10-03T09:50:06,42.805,6.029,4330,1995,196.680,60.149,13.289
2017-10-03T09:53:06,42.805,6.029,4330,1995,196.963,60.236,13.290
2017-10-03T09:56:06,42.805,6.029,4330,1995,197.024,60.255,13.290
2017-10-03T09:59:06,42.805,6.029,4330,1995,196.750,60.172,13.291
2017-10-03T10:02:06,42.805,6.029,4330,1995,196.860,60.204,13.289
2017-10-03T10:05:06,42.805,6.029,4330,1995,197.273,60.331,13.289
2017-10-03T10:08:06,42.805,6.029,4330,1995,197.125,60.285,13.289
2017-10-03T10:11:06,42.805,6.029,4330,1995,197.217,60.313,13.289
2017-10-03T10:14:06,42.805,6.029,4330,1995,197.112,60.281,13.289
2017-10-03T10:17:06,42.805,6.029,4330,1995,197.465,60.387,13.288
2017-10-03T10:20:06,42.805,6.029,4330,1995,197.528,60.408,13.289
2017-10-03T10:23:06,42.805,6.029,4330,1995,197.072,60.268,13.289
2017-10-03T10:26:06,42.805,6.029,4330,1995,196.673,60.149,13.291
2017-10-03T10:29:06,42.805,6.029,4330,1995,196.405,60.067,13.291
2017-10-03T10:32:06,42.805,6.029,4330,1995,196.036,59.956,13.292
2017-10-03T10:35:06,42.805,6.029,4330,1995,195.692,59.851,13.292
2017-10-03T10:38:06,42.805,6.029,4330,1995,195.601,59.823,13.292
2017-10-03T10:41:06,42.805,6.029,4330,1995,195.466,59.782,13.292
2017-10-03T10:44:06,42.805,6.029,4330,1995,195.774,59.874,13.291
2017-10-03T10:47:06,42.805,6.029,4330,1995,196.255,60.019,13.289
2017-10-03T10:50:06,42.805,6.029,4330,1995,197.074,60.268,13.288
2017-10-03T10:53:06,42.805,6.029,4330,1995,197.379,60.362,13.289
2017-10-03T10:56:06,42.805,6.029,4330,1995,196.953,60.233,13.289
2017-10-03T10:59:06,42.805,6.029,4330,1995,196.463,60.085,13.291
2017-10-03T11:02:06,42.805,6.029,4330,1995,195.970,59.936,13.292
2017-10-03T11:05:06,42.805,6.029,4330,1995,195.639,59.837,13.294
2017-10-03T11:08:06,42.805,6.029,4330,1995,196.019,59.951,13.292
2017-10-03T11:11:06,42.805,6.029,4330,1995,196.220,60.008,13.288
2017-10-03T11:14:06,42.805,6.029,4330,1995,196.509,60.099,13.291
2017-10-03T11:17:06,42.805,6.029,4330,1995,196.609,60.127,13.289
2017-10-03T11:20:06,42.805,6.029,4330,1995,197.319,60.344,13.289
2017-10-03T11:23:06,42.805,6.029,4330,1995,197.245,60.321,13.288
2017-10-03T11:26:06,42.805,6.029,4330,1995,197.112,60.278,13.287
2017-10-03T11:29:06,42.805,6.029,4330,1995,197.225,60.314,13.288
2017-10-03T11:32:06,42.805,6.029,4330,1995,197.027,60.253,13.287
2017-10-03T11:35:06,42.805,6.029,4330,1995,197.126,60.284,13.288
2017-10-03T11:38:06,42.805,6.029,4330,1995,197.161,60.294,13.288
2017-10-03T11:41:06,42.805,6.029,4330,1995,197.164,60.296,13.288
2017-10-03T11:44:06,42.805,6.029,4330,1995,197.141,60.288,13.287
2017-10-03T11:47:06,42.805,6.029,4330,1995,196.920,60.220,13.287
2017-10-03T11:50:06,42.805,6.029,4330,1995,196.730,60.162,13.287
2017-10-03T11:53:06,42.805,6.029,4330,1995,196.590,60.119,13.287
2017-10-03T11:56:06,42.805,6.029,4330,1995,196.735,60.163,13.287
2017-10-03T11:59:06,42.805,6.029,4330,1995,196.914,60.218,13.287
2017-10-03T12:02:06,42.805,6.029,4330,1995,196.956,60.230,13.286
2017-10-03T12:05:06,42.805,6.029,4330,1995,196.893,60.210,13.286
2017-10-03T12:08:06,42.805,6.029,4330,1995,197.399,60.366,13.287
2017-10-03T12:11:06,42.805,6.029,4330,1995,197.835,60.499,13.286
2017-10-03T12:14:06,42.805,6.029,4330,1995,198.442,60.685,13.287
2017-10-03T12:17:06,42.805,6.029,4330,1995,198.623,60.739,13.286
2017-10-03T12:20:06,42.805,6.029,4330,1995,198.817,60.799,13.286
2017-10-03T12:23:06,42.805,6.029,4330,1995,198.760,60.781,13.287
2017-10-03T12:26:06,42.805,6.029,4330,1995,199.010,60.857,13.286
2017-10-03T12:29:06,42.805,6.029,4330,1995,199.042,60.867,13.286
2017-10-03T12:32:06,42.805,6.029,4330,1995,199.058,60.873,13.287
2017-10-03T12:35:06,42.805,6.029,4330,1995,199.070,60.877,13.287
2017-10-03T12:38:06,42.805,6.029,4330,1995,199.162,60.904,13.286
2017-10-03T12:41:06,42.805,6.029,4330,1995,199.181,60.911,13.287
2017-10-03T12:44:06,42.805,6.029,4330,1995,199.010,60.857,13.286
2017-10-03T12:47:06,42.805,6.029,4330,1995,199.019,60.861,13.287
2017-10-03T12:50:06,42.805,6.029,4330,1995,198.921,60.831,13.287
2017-10-03T12:53:06,42.805,6.029,4330,1995,199.037,60.865,13.286
2017-10-03T12:56:06,42.805,6.029,4330,1995,199.074,60.877,13.286
2017-10-03T12:59:06,42.805,6.029,4330,1995,198.996,60.853,13.286
2017-10-03T13:02:06,42.805,6.029,4330,1995,198.818,60.799,13.286
2017-10-03T13:05:06,42.805,6.029,4330,1995,198.692,60.760,13.286
2017-10-03T13:08:06,42.805,6.029,4330,1995,198.685,60.758,13.286
2017-10-03T13:11:06,42.805,6.029,4330,1995,198.660,60.750,13.286
2017-10-03T13:14:06,42.805,6.029,4330,1995,198.765,60.782,13.286
2017-10-03T13:17:06,42.805,6.029,4330,1995,198.896,60.822,13.286
2017-10-03T13:20:06,42.805,6.029,4330,1995,199.100,60.884,13.286
2017-10-03T13:23:06,42.805,6.029,4330,1995,199.298,60.945,13.286
2017-10-03T13:26:06,42.805,6.029,4330,1995,199.183,60.911,13.286
2017-10-03T13:29:06,42.805,6.029,4330,1995,199.181,60.910,13.287
2017-10-03T13:32:06,42.805,6.029,4330,1995,199.453,60.993,13.286
2017-10-03T13:35:06,42.805,6.029,4330,1995,199.433,60.987,13.286
2017-10-03T13:38:06,42.805,6.029,4330,1995,199.312,60.951,13.287
2017-10-03T13:41:06,42.805,6.029,4330,1995,199.025,60.863,13.287
2017-10-03T13:44:06,42.805,6.029,4330,1995,198.808,60.795,13.286
2017-10-03T13:47:06,42.805,6.029,4330,1995,198.949,60.839,13.286
2017-10-03T13:50:06,42.805,6.029,4330,1995,198.913,60.827,13.286
2017-10-03T13:53:06,42.805,6.029,4330,1995,198.744,60.776,13.286
2017-10-03T13:56:06,42.805,6.029,4330,1995,198.629,60.741,13.286
2017-10-03T13:59:06,42.805,6.029,4330,1995,198.723,60.769,13.286
2017-10-03T14:02:06,42.805,6.029,4330,1995,198.712,60.766,13.286
2017-10-03T14:05:06,42.805,6.029,4330,1995,198.638,60.743,13.286
2017-10-03T14:08:06,42.805,6.029,4330,1995,198.658,60.750,13.286
2017-10-03T14:11:06,42.805,6.029,4330,1995,198.605,60.734,13.286
2017-10-03T14:14:06,42.805,6.029,4330,1995,198.698,60.762,13.286
2017-10-03T14:17:06,42.805,6.029,4330,1995,198.996,60.853,13.286
2017-10-03T14:20:06,42.805,6.029,4330,1995,199.202,60.916,13.286
2017-10-03T14:23:06,42.805,6.029,4330,1995,199.328,60.954,13.286
2017-10-03T14:26:06,42.805,6.029,4330,1995,199.379,60.970,13.286
2017-10-03T14:29:06,42.805,6.029,4330,1995,199.318,60.951,13.286
2017-10-03T14:32:06,42.805,6.029,4330,1995,199.391,60.973,13.285
2017-10-03T14:35:06,42.805,6.029,4330,1995,199.382,60.970,13.286
2017-10-03T14:38:06,42.805,6.029,4330,1995,199.419,60.982,13.286
2017-10-03T14:41:06,42.805,6.029,4330,1995,199.496,61.005,13.285
2017-10-03T14:44:06,42.805,6.029,4330,1995,199.538,61.018,13.285
2017-10-03T14:47:06,42.805,6.029,4330,1995,199.564,61.026,13.285
2017-10-03T14:50:06,42.805,6.029,4330,1995,199.452,60.992,13.285
2017-10-03T14:53:06,42.805,6.029,4330,1995,199.492,61.004,13.285
2017-10-03T14:56:06,42.805,6.029,4330,1995,199.429,60.985,13.285
2017-10-03T14:59:06,42.805,6.029,4330,1995,199.537,61.018,13.285
2017-10-03T15:02:06,42.805,6.029,4330,1995,199.617,61.042,13.285
2017-10-03T15:05:06,42.805,6.029,4330,1995,199.585,61.032,13.285
2017-10-03T15:08:06,42.805,6.029,4330,1995,199.568,61.027,13.285
2017-10-03T15:11:06,42.805,6.029,4330,1995,199.616,61.042,13.285
2017-10-03T15:14:06,42.805,6.029,4330,1995,199.434,60.986,13.285
2017-10-03T15:17:06,42.805,6.029,4330,1995,199.472,60.998,13.286
2017-10-03T15:20:06,42.805,6.029,4330,1995,199.421,60.982,13.286
2017-10-03T15:23:06,42.805,6.029,4330,1995,199.453,60.992,13.286
2017-10-03T15:26:06,42.805,6.029,4330,1995,199.480,61.000,13.285
2017-10-03T15:29:06,42.805,6.029,4330,1995,199.513,61.011,13.286
2017-10-03T15:32:06,42.805,6.029,4330,1995,199.484,61.002,13.286
2017-10-03T15:35:06,42.805,6.029,4330,1995,199.471,60.998,13.285
2017-10-03T15:38:06,42.805,6.029,4330,1995,199.589,61.034,13.285
2017-10-03T15:41:06,42.805,6.029,4330,1995,199.640,61.049,13.285
2017-10-03T15:44:06,42.805,6.029,4330,1995,199.658,61.055,13.285
2017-10-03T15:47:06,42.805,6.029,4330,1995,199.642,61.050,13.286
2017-10-03T15:50:06,42.805,6.029,4330,1995,199.577,61.030,13.286
2017-10-03T15:53:05,42.805,6.029,4330,1995,199.564,61.026,13.286
2017-10-03T15:56:05,42.805,6.029,4330,1995,199.523,61.013,13.285
2017-10-03T15:59:05,42.805,6.029,4330,1995,199.653,61.053,13.285
2017-10-03T16:02:05,42.805,6.029,4330,1995,199.724,61.075,13.285
2017-10-03T16:05:05,42.805,6.029,4330,1995,199.716,61.072,13.285
2017-10-03T16:08:05,42.805,6.029,4330,1995,199.646,61.051,13.285
2017-10-03T16:11:05,42.805,6.029,4330,1995,199.683,61.062,13.285
2017-10-03T16:14:05,42.805,6.029,4330,1995,199.731,61.077,13.285
2017-10-03T16:17:05,42.805,6.029,4330,1995,199.704,61.069,13.285
2017-10-03T16:20:05,42.805,6.029,4330,1995,199.718,61.073,13.286
2017-10-03T16:23:05,42.805,6.029,4330,1995,199.602,61.038,13.285
2017-10-03T16:26:05,42.805,6.029,4330,1995,199.634,61.047,13.286
2017-10-03T16:29:05,42.805,6.029,4330,1995,199.648,61.052,13.285
2017-10-03T16:32:05,42.805,6.029,4330,1995,199.720,61.074,13.285
2017-10-03T16:35:05,42.805,6.029,4330,1995,199.650,61.052,13.286
2017-10-03T16:38:05,42.805,6.029,4330,1995,199.578,61.030,13.286
2017-10-03T16:41:05,42.805,6.029,4330,1995,199.626,61.045,13.286
2017-10-03T16:44:05,42.805,6.029,4330,1995,199.584,61.032,13.286
2017-10-03T16:47:05,42.805,6.029,4330,1995,199.562,61.026,13.286
2017-10-03T16:50:05,42.805,6.029,4330,1995,199.620,61.043,13.285
2017-10-03T16:53:05,42.805,6.029,4330,1995,199.569,61.028,13.286
2017-10-03T16:56:05,42.805,6.029,4330,1995,199.571,61.028,13.285
2017-10-03T16:59:05,42.805,6.029,4330,1995,199.658,61.055,13.285
2017-10-03T17:02:05,42.805,6.029,4330,1995,199.679,61.061,13.286
2017-10-03T17:05:05,42.805,6.029,4330,1995,199.753,61.084,13.286
2017-10-03T17:08:05,42.805,6.029,4330,1995,199.722,61.074,13.286
2017-10-03T17:11:05,42.805,6.029,4330,1995,199.710,61.071,13.286
2017-10-03T17:14:05,42.805,6.029,4330,1995,199.720,61.074,13.285
2017-10-03T17:17:05,42.805,6.029,4330,1995,199.682,61.062,13.286
2017-10-03T17:20:05,42.805,6.029,4330,1995,199.633,61.047,13.286
2017-10-03T17:23:05,42.805,6.029,4330,1995,199.579,61.031,13.286
2017-10-03T17:26:05,42.805,6.029,4330,1995,199.639,61.049,13.286
2017-10-03T17:29:05,42.805,6.029,4330,1995,199.613,61.041,13.286
2017-10-03T17:32:05,42.805,6.029,4330,1995,199.615,61.042,13.286
2017-10-03T17:35:05,42.805,6.029,4330,1995,199.496,61.005,13.286
2017-10-03T17:38:05,42.805,6.029,4330,1995,199.564,61.026,13.285
2017-10-03T17:41:05,42.805,6.029,4330,1995,199.652,61.053,13.285
2017-10-03T17:44:05,42.805,6.029,4330,1995,199.723,61.075,13.286
2017-10-03T17:47:05,42.805,6.029,4330,1995,199.631,61.047,13.286
2017-10-03T17:50:05,42.805,6.029,4330,1995,199.441,60.989,13.286
2017-10-03T17:53:05,42.805,6.029,4330,1995,199.603,61.038,13.286
2017-10-03T17:56:05,42.805,6.029,4330,1995,199.414,60.980,13.286
2017-10-03T17:59:05,42.805,6.029,4330,1995,199.427,60.984,13.286
2017-10-03T18:02:05,42.805,6.029,4330,1995,199.443,60.989,13.286
2017-10-03T18:05:05,42.805,6.029,4330,1995,199.394,60.974,13.286
2017-10-03T18:08:05,42.805,6.029,4330,1995,199.329,60.954,13.286